sat.trackr.live / text

‹ back to catalog

STARLINK-32888

NORAD 62966 · 2025-029U

PAYLOAD ACTIVE UNKNOWN

§ Identity

Operator
Country
US
Launch date
2025-02-11
Launch site
AFWTR
Launch vehicle
Mass (kg)
RCS (m²)

Purposes: comms

External: N2YO · Heavens-Above · Gunter

§ Orbital elements

Epoch: 2026-09-21T21:08:52.881504Z

Period
93.85 min
Inclination
53.1595°
Eccentricity
0.0000916
Mean motion
15.34404059 rev/d
Perigee alt
462.1 km
Apogee alt
463.3 km
Semi-major
6,840.8 km
B*
5.0828e-4
RAAN
39.1763°
Arg perigee
94.5351°
Mean anomaly
265.5757°
Rev number
9,138

§ Raw data

STARLINK-328881 62966U 25029U   26264.88116761  .00016838  00000+0  50828-3 0  99962 62966  53.1595  39.1763 0000916  94.5351 265.5757 15.34404059 91384

JSON: /api/v1/satellites/62966 · /tle

For live sub-satellite position, see the globe view (requires WebGL).

§ Visibility from observer

Set your observer location to see the next 7 days of passes ≥ 10°. The values pass through the URL so the page stays shareable.

No JS? Fill the form by hand. The geolocation button needs JavaScript.